Regional Weather Roundup
Issued by NWS

Home | Current Version | Previous Version | Graphics & Text | Print | Product List | Glossary Off
Versions: 1 2 3 4 5 6 7 8 9 10 11 12 13 14 15 16 17 18 19 20 21 22 23 24 25 26 27 28 29 30 31 32 33 34 35 36 37 38 39 40 41 42 43 44 45 46 47 48 49 50

000
ASUS43 KDMX 271207
RWRIA

WEATHER ROUNDUP FOR IOWA
NATIONAL WEATHER SERVICE DES MOINES IA
700 AM CDT FRI MAR 27 2015

NOTE: "FAIR" INDICATES FEW OR NO CLOUDS BELOW 12,000 FEET WITH NO
SIGNIFICANT WEATHER AND/OR OBSTRUCTIONS TO VISIBILITY.

* - THESE STATIONS ARE NOT NWS STATIONS...THUS NOT UNDER NWS
QUALITY CONTROL.  THEY ALSO DO NOT REPORT WEATHER SUCH
AS PRECIPITATION OR FOG.

IAZ001>003-012>014-020>022-031>034-043>046-271300-
   NORTHWEST IOWA

CITY           SKY/WX    TMP DP  RH WIND       PRES   REMARKS
CARROLL *      CLEAR     19  16  86 NW8       30.25R WCI   9
CHEROKEE *     CLEAR     18  15  87 N5        30.27R WCI  11
DENISON *      CLEAR     19  16  86 CALM      30.25R
LE MARS *      CLEAR     16  12  86 CALM      30.29S
ORANGE CITY *  CLEAR     19  12  73 N5        30.26R WCI  13
SHELDON *      CLEAR     12  10  92 CALM      30.25S
SIOUX CITY     CLEAR     19  12  74 N7        30.30R WCI  10
6HR MIN TEMP:  17; 6HR MAX TEMP:  28;

SPENCER        CLEAR     16  10  77 N8        30.25R WCI   5
6HR MIN TEMP:  16; 6HR MAX TEMP:  23;

STORM LAKE *   CLEAR     16  12  86 N8        30.25R WCI   5
$$

IAZ055>058-069>071-079>083-090>094-271300-
   SOUTHWEST IOWA

CITY           SKY/WX    TMP DP  RH WIND       PRES   REMARKS
ATLANTIC *     CLEAR     19  16  86 NW10      30.26R WCI   8
AUDUBON *      CLEAR     19  14  79 NW5       30.24R WCI  13
CLARINDA *     CLEAR     23  19  86 N6        30.27R WCI  16
COUNCIL BLFS * CLEAR     23  18  80 N7        30.28R WCI  15
CRESTON *      CLEAR     21  18  86 NW9       30.23R WCI  11
HARLAN  *      CLEAR     19  19 100 N6        30.29R WCI  11
LAMONI         PTCLDY    25  19  78 NW7       30.20R WCI  17
6HR MIN TEMP:  24; 6HR MAX TEMP:  33;

RED OAK *      CLEAR     21  19  93 N7        30.27R WCI  13
SHENANDOAH *   CLEAR     23  19  86 N8        30.28R WCI  14
$$

IAZ047>049-059>061-072>074-084-271300-
   CENTRAL IOWA

CITY           SKY/WX    TMP DP  RH WIND       PRES   REMARKS
AMES           CLEAR     22  17  81 N8        30.23R WCI  12
6HR MIN TEMP:  21; 6HR MAX TEMP:  31;

ANKENY *       CLEAR     25  19  80 N8        30.23R WCI  16
CHARITON *     MOCLDY    25  18  74 N9        30.20R WCI  15
DES MOINES     CLEAR     26  17  68 N8        30.23R WCI  18
6HR MIN TEMP:  26; 6HR MAX TEMP:  32;

GRINNELL*      CLEAR     21  18  86 NW8       30.20R WCI  12
KNOXVILLE *    CLEAR     27  18  69 N10       30.19R WCI  17
MARSHALLTOWN   CLEAR     22  16  78 N9        30.20R WCI  12
6HR MIN TEMP:  22; 6HR MAX TEMP:  30;

PELLA *        CLEAR     24  22  91 N7        30.22R WCI  16
PERRY *          N/A     21  19  93 NW7       30.24R WCI  13
$$

IAZ004>006-015-016-023>025-035-036-271300-
   NORTH CENTRAL IOWA

CITY           SKY/WX    TMP DP  RH WIND       PRES   REMARKS
ALGONA *       CLEAR     19  18  93 N5        30.25R WCI  13
CLARION *      CLEAR     21  18  86 N8        30.24R WCI  12
ESTHERVILLE    CLEAR     17  11  77 N7        30.24R WCI   8
6HR MIN TEMP:  17; 6HR MAX TEMP:  23;

FORT DODGE *   CLEAR     21  12  68 N6        30.24R WCI  14
MASON CITY     CLEAR     16  11  80 NW8       30.24R WCI   5
6HR MIN TEMP:  15; 6HR MAX TEMP:  25;

FOREST CITY *  CLEAR     16  14  93 N6        30.24R WCI   7
IOWA FALLS *     N/A     23  15  71 N5        30.22R WCI  17
$$

IAZ007>011-017>019-026>030-037>042-050>054-066-271300-
   NORTHEAST IOWA

CITY           SKY/WX    TMP DP  RH WIND       PRES   REMARKS
CEDAR RAPIDS   CLEAR     24  19  81 NE14G20   30.18R WCI  12
6HR MIN TEMP:  24; 6HR MAX TEMP:  30;

CHARLES CITY * CLEAR     19  12  73 N7        30.23R WCI  10
CLINTON *      CLEAR     21  12  68 N10       30.21R WCI  10
DECORAH *      CLEAR     18   5  57 NE3       30.21R
DUBUQUE        CLEAR     20   5  52 N12       30.18R WCI   8
6HR MIN TEMP:  20; 6HR MAX TEMP:  30; 6HR PCP: TRACE;

MONTICELLO *   CLEAR     23  12  63 N6G12     30.20R WCI  16
OELWEIN *      CLEAR     21  12  68 NE8       30.21R WCI  12
WATERLOO       CLEAR     20  14  77 NE8       30.22R WCI  10
6HR MIN TEMP:  19; 6HR MAX TEMP:  30;

$$

IAZ064-065-067-068-078-271300-
   EAST CENTRAL IOWA

CITY           SKY/WX    TMP DP  RH WIND       PRES   REMARKS
DAVENPORT      PTCLDY    24  13  62 NE13      30.18R WCI  12
6HR MIN TEMP:  24; 6HR MAX TEMP:  30;

IOWA CITY      CLEAR     27  19  72 N12       30.20R WCI  17
6HR MIN TEMP:  26; 6HR MAX TEMP:  32;

MT. PLEASANT * CLOUDY    28  21  75 NW9       30.18R WCI  19
MUSCATINE *    CLOUDY    30  21  69 NE14      30.19R WCI  20
QUAD CITIES    CLOUDY    28  14  55 N13       30.17R WCI  17
6HR MIN TEMP:  28; 6HR MAX TEMP:  31;

$$

IAZ062-063-075>077-085>089-095>099-271300-
   SOUTHEAST IOWA

CITY           SKY/WX    TMP DP  RH WIND       PRES   REMARKS
BURLINGTON     CLOUDY    30  24  78 N9        30.16R WCI  22
6HR MIN TEMP:  29; 6HR MAX TEMP:  33;

FAIRFIELD *    CLEAR     25  19  80 N8        30.18R WCI  16
FORT MADISON * CLOUDY    30  23  74 N7        30.17R WCI  23
KEOKUK *       CLOUDY    32  23  69 VRB7      30.16R WCI  26
OSKALOOSA *      N/A     24  20  82 N9        30.19R WCI  15
CENTERVILLE *  CLEAR     27  19  74 NW7       30.20R WCI  19
OTTUMWA        MOCLDY    26  21  81 N9        30.19R WCI  17
6HR MIN TEMP:  23; 6HR MAX TEMP:  32;

WASHINGTON *   MOCLDY    27  25  93 N12       30.18R WCI  16
$$

ABBREVIATIONS USED IN REMARKS
   TC - TEMPERATURES IN CELSIUS
  WCI - WIND CHILL INDEX
   HX - HEAT INDEX
  VSB - VISIBILITY
$$




USA.gov is the U.S. government's official web portal to all federal, state and local government web resources and services.